Find Starlink 31855

NORAD ID: 59838 Int'l Des: 2024-097 Owner: SPXS Country: US Constellation: starlink operational
LEOCIRCULAR

Current View

Loading 3D Globe...

About Starlink 31855

Starlink 31855 (NORAD 59838) is a starlink constellation satellite (v2 mini) launched May 23, 2024 by SPXS of US. It operates in LEO, CIRCULAR orbit with a mass of 730.00 kg.

Upcoming Passes

Passes for default location (London). Set your location on the main map for personalized predictions.

Altitude History

Loading altitude history...

Two-Line Element Set

1 59838U 24097D 26263.04231902 .00016940 00000-0 62378-3 0 9994
2 59838 43.0012 256.4841 0001235 254.2409 105.8306 15.27575950131646
Epoch: Sep 20, 2026 • Age: 15 hours

Current Status

Altitude 493.3 km
Apogee / Perigee N/A
Velocity 7.62 km/s
Sub-Earth Point -37.74°S, 114.03°W
Launch Date May 23, 2024
Age 2.3 years
Type internet

Technical Details

Classification Payload
Mass 730.00 kg
Dry Mass 700.00 kg
Length 0.30 m
Span 29.00 m
Shape ? Box + pan
Manufacturer SPXS
Bus Type Starlink V2M
Phase Status In Orbit
Owner/State SPXS/US

Most Searched